Time,TemperatureF,DewpointF,PressureIn,WindDirection,WindDirectionDegrees,WindSpeedMPH,WindSpeedGustMPH,Humidity,HourlyPrecipIn,Conditions,Clouds,dailyrainin,SolarRadiationWatts/m^2,SoftwareType,DateUTC
2017-03-29 00:09:00,55.0,48.0,30.08,North,355,0.0,0.0,78,0.00,,,0.00,0,weatherlink.com 1.10,2017-03-29 04:09:00,
2017-03-29 00:25:00,54.9,48.0,30.08,North,355,1.0,2.0,78,0.00,,,0.00,0,weatherlink.com 1.10,2017-03-29 04:25:00,
2017-03-29 00:40:00,55.1,48.0,30.08,North,11,0.0,4.0,78,0.00,,,0.00,0,weatherlink.com 1.10,2017-03-29 04:40:00,
2017-03-29 00:55:00,55.3,48.0,30.07,NNW,345,1.0,8.0,77,0.00,,,0.00,0,weatherlink.com 1.10,2017-03-29 04:55:00,
2017-03-29 01:10:00,55.3,48.0,30.07,NNW,347,0.0,4.0,76,0.00,,,0.00,0,weatherlink.com 1.10,2017-03-29 05:10:00,
2017-03-29 01:25:00,55.0,48.0,30.07,WSW,248,0.0,2.0,77,0.00,,,0.00,0,weatherlink.com 1.10,2017-03-29 05:25:00,
2017-03-29 01:40:00,54.8,48.0,30.07,NW,325,0.0,4.0,78,0.00,,,0.00,0,weatherlink.com 1.10,2017-03-29 05:40:00,
2017-03-29 01:55:00,54.7,48.0,30.08,NW,325,0.0,2.0,78,0.00,,,0.00,0,weatherlink.com 1.10,2017-03-29 05:55:00,
2017-03-29 02:10:00,54.7,48.0,30.08,NNW,329,1.0,3.0,79,0.00,,,0.00,0,weatherlink.com 1.10,2017-03-29 06:10:00,
2017-03-29 02:25:00,54.8,48.0,30.08,ENE,62,0.0,4.0,79,0.00,,,0.00,0,weatherlink.com 1.10,2017-03-29 06:25:00,
2017-03-29 02:40:00,54.9,49.0,30.08,ENE,62,1.0,3.0,79,0.00,,,0.00,0,weatherlink.com 1.10,2017-03-29 06:40:00,
2017-03-29 02:55:00,55.0,49.0,30.08,NE,44,0.0,4.0,79,0.00,,,0.00,0,weatherlink.com 1.10,2017-03-29 06:55:00,
2017-03-29 03:10:00,55.0,49.0,30.08,NE,44,0.0,1.0,79,0.00,,,0.00,0,weatherlink.com 1.10,2017-03-29 07:10:00,
2017-03-29 03:25:00,55.0,49.0,30.08,ENE,57,0.0,4.0,80,0.00,,,0.00,0,weatherlink.com 1.10,2017-03-29 07:25:00,
2017-03-29 03:40:00,54.9,49.0,30.07,NE,42,0.0,2.0,80,0.00,,,0.00,0,weatherlink.com 1.10,2017-03-29 07:40:00,
2017-03-29 03:55:00,54.8,48.0,30.07,ENE,57,0.0,3.0,79,0.00,,,0.00,0,weatherlink.com 1.10,2017-03-29 07:55:00,
2017-03-29 04:10:00,54.6,48.0,30.08,NE,52,0.0,3.0,79,0.00,,,0.00,0,weatherlink.com 1.10,2017-03-29 08:10:00,
2017-03-29 04:25:00,54.5,48.0,30.07,NE,50,1.0,3.0,79,0.00,,,0.00,0,weatherlink.com 1.10,2017-03-29 08:25:00,
2017-03-29 04:40:00,54.3,48.0,30.08,NE,55,1.0,4.0,80,0.00,,,0.00,0,weatherlink.com 1.10,2017-03-29 08:40:00,
2017-03-29 04:55:00,54.1,48.0,30.07,NE,46,0.0,5.0,79,0.00,,,0.00,0,weatherlink.com 1.10,2017-03-29 08:55:00,
2017-03-29 05:10:00,54.0,48.0,30.08,NE,46,0.0,5.0,79,0.00,,,0.00,0,weatherlink.com 1.10,2017-03-29 09:10:00,
2017-03-29 05:25:00,53.9,48.0,30.08,NE,51,1.0,7.0,79,0.00,,,0.00,0,weatherlink.com 1.10,2017-03-29 09:25:00,
2017-03-29 05:40:00,53.8,48.0,30.08,NNE,31,3.0,3.0,80,0.00,,,0.00,0,weatherlink.com 1.10,2017-03-29 09:40:00,
2017-03-29 05:55:00,53.8,48.0,30.09,NE,43,2.0,3.0,80,0.00,,,0.00,0,weatherlink.com 1.10,2017-03-29 09:55:00,
2017-03-29 06:10:00,53.7,48.0,30.10,NE,34,2.0,4.0,80,0.00,,,0.00,0,weatherlink.com 1.10,2017-03-29 10:10:00,
2017-03-29 06:25:00,53.7,48.0,30.09,NNE,28,3.0,4.0,80,0.00,,,0.00,0,weatherlink.com 1.10,2017-03-29 10:25:00,
2017-03-29 06:40:00,53.7,48.0,30.09,North,5,2.0,4.0,80,0.00,,,0.00,0,weatherlink.com 1.10,2017-03-29 10:40:00,
2017-03-29 06:55:00,53.6,48.0,30.08,NNE,28,2.0,6.0,81,0.00,,,0.00,0,weatherlink.com 1.10,2017-03-29 10:55:00,
2017-03-29 07:10:00,53.5,48.0,30.09,NE,46,3.0,7.0,81,0.00,,,0.00,0,weatherlink.com 1.10,2017-03-29 11:10:00,
2017-03-29 07:25:00,53.5,48.0,30.09,NNE,32,2.0,5.0,81,0.00,,,0.00,0,weatherlink.com 1.10,2017-03-29 11:25:00,
2017-03-29 07:40:00,53.5,48.0,30.09,NE,36,2.0,4.0,81,0.00,,,0.00,0,weatherlink.com 1.10,2017-03-29 11:40:00,
2017-03-29 07:55:00,53.4,48.0,30.09,NE,34,2.0,5.0,81,0.00,,,0.00,9,weatherlink.com 1.10,2017-03-29 11:55:00,
2017-03-29 08:10:00,53.4,48.0,30.09,NE,38,0.0,5.0,81,0.00,,,0.00,19,weatherlink.com 1.10,2017-03-29 12:10:00,
2017-03-29 08:25:00,53.5,48.0,30.10,NE,42,3.0,4.0,81,0.00,,,0.00,30,weatherlink.com 1.10,2017-03-29 12:25:00,
2017-03-29 08:40:00,53.7,48.0,30.11,NE,51,1.0,10.0,81,0.00,,,0.00,42,weatherlink.com 1.10,2017-03-29 12:40:00,
2017-03-29 08:55:00,53.8,48.0,30.11,NE,44,2.0,9.0,81,0.00,,,0.00,53,weatherlink.com 1.10,2017-03-29 12:55:00,